TimeCST,TemperatureF,Dew PointF,Humidity,Sea Level PressureIn,VisibilityMPH,Wind Direction,Wind SpeedMPH,Gust SpeedMPH,PrecipitationIn,Events,Conditions,WindDirDegrees,DateUTC
12:53 AM,41.0,28.0,60,30.36,10.0,South,4.6,-,N/A,,Clear,180,2012-11-14 06:53:00
1:53 AM,39.0,28.0,65,30.36,10.0,South,3.5,-,N/A,,Clear,190,2012-11-14 07:53:00
2:53 AM,36.0,26.1,67,30.37,10.0,South,4.6,-,N/A,,Clear,180,2012-11-14 08:53:00
3:53 AM,30.0,25.0,82,30.37,10.0,Calm,Calm,-,N/A,,Clear,0,2012-11-14 09:53:00
4:53 AM,30.9,26.1,82,30.37,10.0,SE,3.5,-,N/A,,Clear,140,2012-11-14 10:53:00
5:53 AM,28.0,24.1,85,30.38,10.0,SSE,5.8,-,N/A,,Clear,160,2012-11-14 11:53:00
6:53 AM,28.0,24.1,85,30.38,10.0,SSE,5.8,-,N/A,,Clear,160,2012-11-14 12:53:00
7:53 AM,32.0,26.1,79,30.39,10.0,SSE,4.6,-,N/A,,Clear,160,2012-11-14 13:53:00
8:53 AM,42.1,28.9,60,30.40,10.0,South,6.9,-,N/A,,Clear,180,2012-11-14 14:53:00
9:53 AM,46.9,28.0,48,30.39,10.0,South,6.9,-,N/A,,Clear,170,2012-11-14 15:53:00
10:53 AM,52.0,28.0,40,30.38,10.0,South,9.2,-,N/A,,Clear,180,2012-11-14 16:53:00
11:53 AM,55.0,26.1,33,30.35,10.0,South,12.7,18.4,N/A,,Clear,170,2012-11-14 17:53:00
12:53 PM,57.0,25.0,29,30.32,10.0,South,13.8,19.6,N/A,,Clear,170,2012-11-14 18:53:00
1:53 PM,57.0,25.0,29,30.30,10.0,South,11.5,-,N/A,,Clear,180,2012-11-14 19:53:00
2:53 PM,57.0,24.1,28,30.29,10.0,South,11.5,-,N/A,,Clear,190,2012-11-14 20:53:00
3:53 PM,55.9,25.0,30,30.28,10.0,SSE,9.2,-,N/A,,Clear,160,2012-11-14 21:53:00
4:53 PM,51.1,27.0,39,30.27,10.0,SSE,6.9,-,N/A,,Clear,160,2012-11-14 22:53:00
5:53 PM,45.0,27.0,49,30.27,10.0,SE,6.9,-,N/A,,Clear,140,2012-11-14 23:53:00
6:53 PM,43.0,28.0,56,30.28,10.0,SSE,6.9,-,N/A,,Clear,150,2012-11-15 00:53:00
7:53 PM,41.0,28.0,60,30.29,10.0,SE,6.9,-,N/A,,Clear,140,2012-11-15 01:53:00
8:53 PM,41.0,28.0,60,30.27,10.0,SE,6.9,-,N/A,,Clear,140,2012-11-15 02:53:00
9:53 PM,39.9,28.0,63,30.27,10.0,SE,6.9,-,N/A,,Clear,140,2012-11-15 03:53:00
10:53 PM,39.9,28.9,65,30.27,10.0,SSE,5.8,-,N/A,,Clear,150,2012-11-15 04:53:00
11:53 PM,39.9,28.9,65,30.26,10.0,SSE,6.9,-,N/A,,Clear,160,2012-11-15 05:53:00